Location: Mount Carleton Provincial Park
(47.4176°N, 66.8949°W)
Time: 14:40:58
(UTC-04:00)

ISS - Visible Passes

Search period start: 06 December 2021 00:00
Search period end: 16 December 2021 00:00
Orbit: 417 x 422 km, 51.6° (Epoch: 06 December)

Date Brightness Start Highest point End Pass type
(mag) Time Alt. Az. Time Alt. Az. Time Alt. Az.
06 Dec -3.4 17:39:40 10° WNW 17:43:03 68° SSW 17:46:25 10° SE visible
06 Dec -0.7 19:17:46 10° WSW 19:19:20 13° SW 19:20:29 11° SSW visible
07 Dec -1.1 18:29:37 10° W 18:32:08 19° SW 18:34:39 10° S visible
08 Dec -1.6 17:41:52 10° W 17:44:53 29° SW 17:47:52 10° SSE visible
10 Dec -0.3 17:44:57 10° WSW 17:46:28 13° SW 17:48:00 10° SSW visible
